sat.trackr.live / text

‹ back to catalog

STARLINK-33768

NORAD 63454 · 2025-069X

PAYLOAD ACTIVE UNKNOWN

§ Identity

Operator
Country
US
Launch date
2025-04-04
Launch site
AFWTR
Launch vehicle
Mass (kg)
RCS (m²)

Purposes: comms

External: N2YO · Heavens-Above · Gunter

§ Orbital elements

Epoch: 2026-05-24T23:41:39.712416Z

Period
93.37 min
Inclination
53.1589°
Eccentricity
0.0001944
Mean motion
15.42191907 rev/d
Perigee alt
438.3 km
Apogee alt
441.0 km
Semi-major
6,817.8 km
B*
7.2318e-4
RAAN
145.4093°
Arg perigee
81.0385°
Mean anomaly
279.0841°
Rev number
6,511

§ Raw data

STARLINK-337681 63454U 25069X   26144.98726519  .00031221  00000+0  72318-3 0  99902 63454  53.1589 145.4093 0001944  81.0385 279.0841 15.42191907 65117

JSON: /api/v1/satellites/63454 · /tle

For live sub-satellite position, see the globe view (requires WebGL).

§ Visibility from observer

Set your observer location to see the next 7 days of passes ≥ 10°. The values pass through the URL so the page stays shareable.

No JS? Fill the form by hand. The geolocation button needs JavaScript.